STARLINK-31148, 58741

Orbit data source: Space-Track

STARLINK-31148, 58741 is a payload satellite owned by SpaceX/Seattle (US) in LEO that was launched on Sun, 07 Jan 2024 UTC via an FALCON 9 launch vehicle from the Air Force Eastern Test Range (AFETR). Payload-class satellites include a variety of spacecraft equipped with specific instruments for various scientific and technological missions. These include communications satellites like Starlink; space stations such as the ISS; scientific satellites like the Hubble; Earth observation satellites from companies like Planet Labs, Umbra, and HawkEye 360; GPS; miniature CubeSats for education and research; and military/defense satellites.

Loading next visibility...
Identifier
58741, 2024-005P
Orbit
LEO
Country
Flag of USUS
Related business
Manufacturer
SpaceX/Seattle
Mission
Operational Commercial Communications
Bus & Motor
STARLINK V2M, Unknown motor
Mass
730 kg wet, ~700 kg dry
Launch date (UTC)
2024-01-07 (2 years ago)
Launch vehicle
FALCON 9
Launch site
Air Force Eastern Test Range (AFETR)
Object type
Payload
Rocket body
Debris
Shape & HBR
Box + 2 Pan, 17.7 m
Radar Cross Section
33.884 m², Large (>1 m²)

Expand to show TLE details & history
Last TLE update: 3 days ago

TLE from 3 days ago
0 STARLINK-31148
1 58741U 24005P   26170.60678666  .00000980  00000-0  45165-4 0  9999
2 58741  43.0042   3.9285 0001767 279.8000  80.2652 15.27573352136030
Epoch: 2026-06-19T14:33Z
TLE epoch observation values (Epoch: 2026-06-19T14:33:46.367Z)
Latitude
-0.00002°
Longitude
-122.34806°
Altitude
482.64 km
Speed
7.626 km/s
True Right ascension
00h 15m 42s
True Declination
0° 00' 00"
Sunlit
Object was in daylight at epoch
Visualization orbit readout
Latitude
Unknown
Longitude
Unknown
Altitude
Unknown
Speed
Unknown
Apparent Right ascension
Unknown
Apparent Declination
Unknown
Sunlit
N/A
Visualization observer readout
Local Sidereal Time
21:24:25
Azimuth
Unknown
Elevation
Unknown
Doppler factor
Unknown
Orbital elements
Apogee altitude
486.226 km
Perigee altitude
483.801 km
Semi-major axis
6,863.15 km
Eccentricity
0.00018
Inclination
43.0042°
RAAN
3.9285°
Arg. of periapsis
279.8°
True anomaly
80.28516°
Mean anomaly
80.2652°
Eccentric anomaly
80.27518°
Mean motion
3.81731 °/min
Orbital period
94.31 mins
BSTAR
0.000045165
Loading maneuver chart data...
Computing Atmospheric mass density...
Loading historical data...
Loading historical data...
Loading historical data...
Loading historical data...
Loading historical data...
Loading historical data...
Loading historical data...

Documentation

Showing up to 5 results
|